Time,TemperatureF,DewpointF,PressureIn,WindDirection,WindDirectionDegrees,WindSpeedMPH,WindSpeedGustMPH,Humidity,HourlyPrecipIn,Conditions,Clouds,dailyrainin,SolarRadiationWatts/m^2,SoftwareType,DateUTC
2013-03-29 00:02:00,65.7,57.2,30.10,SSE,162,6.0,12.1,74,0.00,,,0.00,0.0,meteobridge,2013-03-29 05:02:00,
2013-03-29 00:07:00,65.7,57.2,30.09,SSE,163,6.9,8.9,74,0.00,,,0.00,0.0,meteobridge,2013-03-29 05:07:00,
2013-03-29 00:12:00,65.5,57.0,30.09,SSE,160,8.1,8.9,74,0.00,,,0.00,0.0,meteobridge,2013-03-29 05:12:00,
2013-03-29 00:17:00,65.5,57.4,30.09,SSE,157,6.9,13.0,75,0.00,,,0.00,0.0,meteobridge,2013-03-29 05:17:00,
2013-03-29 00:22:00,65.5,57.4,30.09,SSE,164,8.1,11.0,75,0.00,,,0.00,0.0,meteobridge,2013-03-29 05:22:00,
2013-03-29 00:27:00,65.5,57.4,30.09,South,171,6.9,10.1,75,0.00,,,0.00,0.0,meteobridge,2013-03-29 05:27:00,
2013-03-29 00:32:00,65.5,57.4,30.09,South,171,10.1,13.0,75,0.00,,,0.00,0.0,meteobridge,2013-03-29 05:32:00,
2013-03-29 00:38:00,65.5,57.4,30.09,SSE,160,10.1,12.1,75,0.00,,,0.00,0.0,meteobridge,2013-03-29 05:38:00,
2013-03-29 00:43:00,65.5,57.4,30.09,SSE,167,8.9,15.0,75,0.00,,,0.00,0.0,meteobridge,2013-03-29 05:43:00,
2013-03-29 00:49:00,65.3,57.2,30.09,SSE,167,10.1,12.1,75,0.00,,,0.00,0.0,meteobridge,2013-03-29 05:49:00,
2013-03-29 00:54:00,65.3,57.6,30.09,SSE,165,8.1,11.0,76,0.00,,,0.00,0.0,meteobridge,2013-03-29 05:54:00,
2013-03-29 00:59:00,65.1,57.4,30.09,SSE,157,11.0,13.0,76,0.00,,,0.00,0.0,meteobridge,2013-03-29 05:59:00,
2013-03-29 01:05:00,64.9,57.2,30.09,SSE,163,10.1,12.1,76,0.00,,,0.00,0.0,meteobridge,2013-03-29 06:05:00,
2013-03-29 01:10:00,65.1,57.4,30.09,SSE,165,6.0,11.0,76,0.00,,,0.00,0.0,meteobridge,2013-03-29 06:10:00,
2013-03-29 01:18:00,64.9,57.6,30.09,South,171,11.0,12.1,77,0.00,,,0.00,0.0,meteobridge,2013-03-29 06:18:00,
2013-03-29 01:23:00,64.9,57.6,30.09,SSE,167,6.9,11.0,77,0.00,,,0.00,0.0,meteobridge,2013-03-29 06:23:00,
2013-03-29 01:28:00,64.9,57.6,30.09,SSE,167,8.9,11.0,77,0.00,,,0.00,0.0,meteobridge,2013-03-29 06:28:00,
2013-03-29 01:33:00,64.8,57.4,30.10,SSE,168,6.0,6.9,77,0.00,,,0.00,0.0,meteobridge,2013-03-29 06:33:00,
2013-03-29 01:38:00,64.8,57.4,30.10,SSE,165,10.1,11.0,77,0.00,,,0.00,0.0,meteobridge,2013-03-29 06:38:00,
2013-03-29 01:43:00,64.8,57.4,30.10,South,169,6.0,8.9,77,0.00,,,0.00,0.0,meteobridge,2013-03-29 06:43:00,
2013-03-29 01:48:00,64.8,57.4,30.10,SSE,165,12.1,13.0,77,0.00,,,0.00,0.0,meteobridge,2013-03-29 06:48:00,
2013-03-29 01:53:00,64.9,57.6,30.10,South,176,12.1,15.0,77,0.00,,,0.00,0.0,meteobridge,2013-03-29 06:53:00,
2013-03-29 01:58:00,64.9,57.6,30.10,South,176,10.1,14.1,77,0.00,,,0.00,0.0,meteobridge,2013-03-29 06:58:00,
2013-03-29 02:03:00,64.9,57.6,30.10,South,175,10.1,13.0,77,0.00,,,0.00,0.0,meteobridge,2013-03-29 07:03:00,
2013-03-29 02:08:00,64.9,57.6,30.10,SSE,150,10.1,14.1,77,0.00,,,0.00,0.0,meteobridge,2013-03-29 07:08:00,
2013-03-29 02:13:00,65.1,57.7,30.10,South,180,8.1,14.1,77,0.00,,,0.00,0.0,meteobridge,2013-03-29 07:13:00,
2013-03-29 02:18:00,65.1,57.7,30.10,South,179,10.1,16.1,77,0.00,,,0.00,0.0,meteobridge,2013-03-29 07:18:00,
2013-03-29 02:23:00,65.1,57.7,30.10,South,186,13.0,15.0,77,0.00,,,0.00,0.0,meteobridge,2013-03-29 07:23:00,
2013-03-29 02:28:00,65.1,57.7,30.10,SSE,164,8.9,14.1,77,0.00,,,0.00,0.0,meteobridge,2013-03-29 07:28:00,
2013-03-29 02:33:00,64.9,57.6,30.10,SSE,167,11.0,17.9,77,0.00,,,0.00,0.0,meteobridge,2013-03-29 07:33:00,
2013-03-29 02:39:00,64.9,57.6,30.10,SSE,153,6.9,15.0,77,0.00,,,0.00,0.0,meteobridge,2013-03-29 07:39:00,
2013-03-29 02:44:00,64.9,57.6,30.09,South,174,11.0,17.9,77,0.00,,,0.00,0.0,meteobridge,2013-03-29 07:44:00,
2013-03-29 02:49:00,64.8,57.4,30.09,South,179,8.9,15.0,77,0.00,,,0.00,0.0,meteobridge,2013-03-29 07:49:00,
2013-03-29 02:54:00,64.8,57.4,30.09,SSE,157,11.0,19.0,77,0.00,,,0.00,0.0,meteobridge,2013-03-29 07:54:00,
2013-03-29 02:59:00,64.6,57.6,30.09,SSE,155,11.0,15.0,78,0.00,,,0.00,0.0,meteobridge,2013-03-29 07:59:00,
2013-03-29 03:04:00,64.4,57.4,30.09,SSE,159,8.9,15.0,78,0.00,,,0.00,0.0,meteobridge,2013-03-29 08:04:00,
2013-03-29 03:09:00,64.2,57.2,30.09,SSE,167,10.1,13.0,78,0.00,,,0.00,0.0,meteobridge,2013-03-29 08:09:00,
2013-03-29 03:14:00,64.0,57.0,30.09,SSE,158,10.1,17.0,78,0.00,,,0.00,0.0,meteobridge,2013-03-29 08:14:00,
2013-03-29 03:19:00,64.0,57.0,30.09,SSW,196,15.0,17.0,78,0.00,,,0.00,0.0,meteobridge,2013-03-29 08:19:00,
2013-03-29 03:24:00,64.0,57.4,30.09,South,169,11.0,17.0,79,0.00,,,0.00,0.0,meteobridge,2013-03-29 08:24:00,
2013-03-29 03:29:00,63.9,57.2,30.09,South,174,13.0,16.1,79,0.00,,,0.00,0.0,meteobridge,2013-03-29 08:29:00,
2013-03-29 03:34:00,63.9,57.2,30.09,SSE,153,15.0,17.9,79,0.00,,,0.00,0.0,meteobridge,2013-03-29 08:34:00,
2013-03-29 03:40:00,63.9,57.2,30.09,South,184,17.0,19.9,79,0.00,,,0.00,0.0,meteobridge,2013-03-29 08:40:00,
2013-03-29 03:45:00,63.7,57.0,30.09,South,178,17.0,17.0,79,0.00,,,0.00,0.0,meteobridge,2013-03-29 08:45:00,
2013-03-29 03:50:00,63.7,57.0,30.09,South,182,8.1,13.0,79,0.00,,,0.00,0.0,meteobridge,2013-03-29 08:50:00,
2013-03-29 03:55:00,63.5,57.2,30.09,SSW,194,14.1,14.1,80,0.00,,,0.00,0.0,meteobridge,2013-03-29 08:55:00,
2013-03-29 04:00:00,63.3,57.0,30.09,South,183,8.9,17.9,80,0.00,,,0.00,0.0,meteobridge,2013-03-29 09:00:00,
2013-03-29 04:05:00,63.3,57.0,30.10,SSE,157,11.0,11.0,80,0.00,,,0.00,0.0,meteobridge,2013-03-29 09:05:00,
2013-03-29 04:10:00,63.3,57.0,30.10,South,183,11.0,14.1,80,0.00,,,0.00,0.0,meteobridge,2013-03-29 09:10:00,
2013-03-29 04:15:00,63.1,56.8,30.10,South,188,14.1,15.0,80,0.00,,,0.00,0.0,meteobridge,2013-03-29 09:15:00,
2013-03-29 04:20:00,63.1,57.2,30.10,South,182,11.0,16.1,81,0.00,,,0.00,0.0,meteobridge,2013-03-29 09:20:00,
2013-03-29 04:25:00,63.0,57.0,30.10,South,172,11.0,17.9,81,0.00,,,0.00,0.0,meteobridge,2013-03-29 09:25:00,
2013-03-29 04:30:00,63.0,57.0,30.10,South,188,10.1,15.0,81,0.00,,,0.00,0.0,meteobridge,2013-03-29 09:30:00,
2013-03-29 04:35:00,63.0,57.0,30.10,South,178,8.9,10.1,81,0.00,,,0.00,0.0,meteobridge,2013-03-29 09:35:00,
2013-03-29 04:40:00,62.8,56.8,30.10,SSE,164,13.0,13.0,81,0.00,,,0.00,0.0,meteobridge,2013-03-29 09:40:00,
2013-03-29 04:45:00,62.8,56.8,30.10,SSE,163,6.0,11.0,81,0.00,,,0.00,0.0,meteobridge,2013-03-29 09:45:00,
2013-03-29 04:51:00,62.8,56.8,30.11,South,169,8.1,13.0,81,0.00,,,0.00,0.0,meteobridge,2013-03-29 09:51:00,
2013-03-29 04:56:00,62.6,57.0,30.10,SSE,159,6.0,8.9,82,0.00,,,0.00,0.0,meteobridge,2013-03-29 09:56:00,
2013-03-29 05:01:00,62.4,56.8,30.10,South,171,12.1,12.1,82,0.00,,,0.00,0.0,meteobridge,2013-03-29 10:01:00,
2013-03-29 05:06:00,62.4,56.8,30.11,South,184,6.9,13.0,82,0.00,,,0.00,0.0,meteobridge,2013-03-29 10:06:00,
2013-03-29 05:11:00,62.2,56.7,30.11,South,176,8.1,12.1,82,0.00,,,0.00,0.0,meteobridge,2013-03-29 10:11:00,
2013-03-29 05:16:00,62.2,56.7,30.11,South,176,8.1,12.1,82,0.00,,,0.00,0.0,meteobridge,2013-03-29 10:16:00,
2013-03-29 05:21:00,62.2,56.7,30.11,South,171,4.9,12.1,82,0.00,,,0.00,0.0,meteobridge,2013-03-29 10:21:00,
2013-03-29 05:26:00,62.1,56.8,30.11,South,173,6.9,12.1,83,0.00,,,0.00,0.0,meteobridge,2013-03-29 10:26:00,
2013-03-29 05:31:00,62.1,56.8,30.11,South,171,8.1,13.0,83,0.00,,,0.00,0.0,meteobridge,2013-03-29 10:31:00,
2013-03-29 05:36:00,61.9,56.7,30.11,South,178,11.0,12.1,83,0.00,,,0.00,0.0,meteobridge,2013-03-29 10:36:00,
2013-03-29 05:41:00,61.9,56.7,30.11,SSE,159,8.9,16.1,83,0.00,,,0.00,0.0,meteobridge,2013-03-29 10:41:00,
2013-03-29 05:46:00,61.7,56.5,30.11,SSE,163,8.9,12.1,83,0.00,,,0.00,0.0,meteobridge,2013-03-29 10:46:00,
2013-03-29 05:51:00,61.5,56.3,30.11,South,169,6.9,12.1,83,0.00,,,0.00,0.0,meteobridge,2013-03-29 10:51:00,
2013-03-29 05:57:00,61.3,56.5,30.10,SSE,164,8.9,16.1,84,0.00,,,0.00,0.0,meteobridge,2013-03-29 10:57:00,
2013-03-29 06:02:00,61.2,56.3,30.11,SSE,159,8.9,15.0,84,0.00,,,0.00,0.0,meteobridge,2013-03-29 11:02:00,
2013-03-29 06:07:00,60.8,55.9,30.11,South,181,8.9,12.1,84,0.00,,,0.00,0.0,meteobridge,2013-03-29 11:07:00,
2013-03-29 06:12:00,60.8,56.3,30.11,South,172,4.9,11.0,85,0.00,,,0.00,0.0,meteobridge,2013-03-29 11:12:00,
2013-03-29 06:17:00,60.6,56.1,30.11,South,169,8.1,10.1,85,0.00,,,0.00,0.0,meteobridge,2013-03-29 11:17:00,
2013-03-29 06:22:00,60.6,56.1,30.11,South,169,4.9,8.1,85,0.00,,,0.00,0.0,meteobridge,2013-03-29 11:22:00,
2013-03-29 06:27:00,60.6,56.1,30.11,SSE,159,6.0,10.1,85,0.00,,,0.00,0.0,meteobridge,2013-03-29 11:27:00,
2013-03-29 06:32:00,60.6,56.1,30.11,SSE,159,4.9,11.0,85,0.00,,,0.00,0.0,meteobridge,2013-03-29 11:32:00,
2013-03-29 06:37:00,60.4,55.9,30.11,South,176,11.0,12.1,85,0.00,,,0.00,0.0,meteobridge,2013-03-29 11:37:00,
2013-03-29 06:42:00,60.4,56.3,30.11,SSE,163,12.1,12.1,86,0.00,,,0.00,0.0,meteobridge,2013-03-29 11:42:00,
2013-03-29 06:47:00,60.4,56.3,30.11,SSE,160,4.9,11.0,86,0.00,,,0.00,0.0,meteobridge,2013-03-29 11:47:00,
2013-03-29 06:53:00,60.3,56.1,30.11,SSE,155,6.9,11.0,86,0.00,,,0.00,0.0,meteobridge,2013-03-29 11:53:00,
2013-03-29 06:58:00,60.3,56.1,30.11,SSE,161,8.9,13.0,86,0.00,,,0.00,0.0,meteobridge,2013-03-29 11:58:00,
2013-03-29 07:03:00,60.3,56.1,30.11,SSE,159,12.1,12.1,86,0.00,,,0.00,0.0,meteobridge,2013-03-29 12:03:00,
2013-03-29 07:08:00,60.3,56.1,30.11,South,169,4.9,11.0,86,0.00,,,0.00,0.0,meteobridge,2013-03-29 12:08:00,
2013-03-29 07:13:00,60.3,56.1,30.11,South,177,11.0,15.0,86,0.00,,,0.00,0.0,meteobridge,2013-03-29 12:13:00,
2013-03-29 07:18:00,60.3,56.1,30.11,SSE,163,11.0,13.0,86,0.00,,,0.00,0.0,meteobridge,2013-03-29 12:18:00,
2013-03-29 07:23:00,60.3,56.1,30.12,South,174,6.0,11.0,86,0.00,,,0.00,0.0,meteobridge,2013-03-29 12:23:00,
2013-03-29 07:28:00,60.4,56.5,30.12,South,174,8.9,15.0,87,0.00,,,0.00,7.0,meteobridge,2013-03-29 12:28:00,
2013-03-29 07:33:00,60.4,56.5,30.12,South,170,8.9,14.1,87,0.00,,,0.00,9.0,meteobridge,2013-03-29 12:33:00,
2013-03-29 07:38:00,60.4,56.5,30.13,SSE,149,12.1,13.0,87,0.00,,,0.00,12.0,meteobridge,2013-03-29 12:38:00,
2013-03-29 07:43:00,60.6,56.5,30.13,South,183,10.1,12.1,86,0.00,,,0.00,18.0,meteobridge,2013-03-29 12:43:00,
2013-03-29 07:48:00,60.6,56.5,30.13,SSE,159,11.0,11.0,86,0.00,,,0.00,23.0,meteobridge,2013-03-29 12:48:00,
2013-03-29 07:53:00,60.8,56.7,30.14,SSE,160,8.9,11.0,86,0.00,,,0.00,26.0,meteobridge,2013-03-29 12:53:00,
2013-03-29 07:58:00,61.0,56.8,30.14,South,179,6.0,13.0,86,0.00,,,0.00,35.0,meteobridge,2013-03-29 12:58:00,
2013-03-29 08:03:00,61.2,57.0,30.14,South,179,6.0,14.1,86,0.00,,,0.00,40.0,meteobridge,2013-03-29 13:03:00,
2013-03-29 08:09:00,61.2,57.0,30.14,SSW,196,6.0,8.9,86,0.00,,,0.00,51.0,meteobridge,2013-03-29 13:09:00,
2013-03-29 08:14:00,61.3,57.2,30.14,South,174,6.0,11.0,86,0.00,,,0.00,56.0,meteobridge,2013-03-29 13:14:00,
2013-03-29 08:19:00,61.5,57.0,30.14,South,180,8.1,10.1,85,0.00,,,0.00,51.0,meteobridge,2013-03-29 13:19:00,
2013-03-29 08:24:00,61.5,57.0,30.14,South,190,14.1,16.1,85,0.00,,,0.00,70.0,meteobridge,2013-03-29 13:24:00,
2013-03-29 08:29:00,61.9,57.4,30.14,South,179,8.9,13.0,85,0.00,,,0.00,79.0,meteobridge,2013-03-29 13:29:00,
2013-03-29 08:34:00,61.9,57.4,30.15,South,182,8.9,13.0,85,0.00,,,0.00,102.0,meteobridge,2013-03-29 13:34:00,
2013-03-29 08:39:00,62.1,57.2,30.15,South,184,10.1,14.1,84,0.00,,,0.00,114.0,meteobridge,2013-03-29 13:39:00,
2013-03-29 08:44:00,62.2,57.4,30.15,South,175,8.9,12.1,84,0.00,,,0.00,111.0,meteobridge,2013-03-29 13:44:00,
2013-03-29 08:49:00,62.4,57.6,30.14,South,189,8.1,11.0,84,0.00,,,0.00,141.0,meteobridge,2013-03-29 13:49:00,
2013-03-29 08:54:00,62.6,57.7,30.15,SSE,159,8.9,15.0,84,0.00,,,0.00,172.0,meteobridge,2013-03-29 13:54:00,
2013-03-29 08:59:00,63.1,57.9,30.15,SSW,194,8.9,17.9,83,0.00,,,0.00,172.0,meteobridge,2013-03-29 13:59:00,
2013-03-29 09:04:00,63.3,58.1,30.15,South,188,17.9,17.9,83,0.00,,,0.00,352.0,meteobridge,2013-03-29 14:04:00,
2013-03-29 09:09:00,64.0,58.5,30.15,SSE,168,13.0,15.0,82,0.00,,,0.00,246.0,meteobridge,2013-03-29 14:09:00,
2013-03-29 09:14:00,64.0,58.1,30.15,SSW,192,11.0,14.1,81,0.00,,,0.00,202.0,meteobridge,2013-03-29 14:14:00,
2013-03-29 09:19:00,64.2,58.3,30.15,South,169,6.9,15.0,81,0.00,,,0.00,223.0,meteobridge,2013-03-29 14:19:00,
2013-03-29 09:24:00,64.8,58.5,30.14,South,182,12.1,19.0,80,0.00,,,0.00,420.0,meteobridge,2013-03-29 14:24:00,
2013-03-29 09:29:00,64.8,58.5,30.14,South,179,8.1,17.9,80,0.00,,,0.00,192.0,meteobridge,2013-03-29 14:29:00,
2013-03-29 09:35:00,65.5,58.8,30.14,South,185,6.9,12.1,79,0.00,,,0.00,397.0,meteobridge,2013-03-29 14:35:00,
2013-03-29 09:40:00,65.8,59.2,30.14,SSW,204,13.0,16.1,79,0.00,,,0.00,531.0,meteobridge,2013-03-29 14:40:00,
2013-03-29 09:45:00,67.1,60.4,30.14,South,175,11.0,15.0,79,0.00,,,0.00,350.0,meteobridge,2013-03-29 14:45:00,
2013-03-29 09:50:00,66.7,59.4,30.14,SW,227,6.9,17.0,77,0.00,,,0.00,325.0,meteobridge,2013-03-29 14:50:00,
2013-03-29 09:55:00,67.3,59.9,30.14,South,175,11.0,17.0,77,0.00,,,0.00,619.0,meteobridge,2013-03-29 14:55:00,
2013-03-29 10:00:00,67.6,59.7,30.14,South,184,17.0,17.0,76,0.00,,,0.00,568.0,meteobridge,2013-03-29 15:00:00,
2013-03-29 10:05:00,67.5,59.5,30.13,South,187,21.9,21.9,76,0.00,,,0.00,582.0,meteobridge,2013-03-29 15:05:00,
2013-03-29 10:10:00,67.5,59.5,30.14,SSW,198,13.0,17.0,76,0.00,,,0.00,635.0,meteobridge,2013-03-29 15:10:00,
2013-03-29 10:15:00,67.6,59.4,30.13,SSW,198,17.0,19.9,75,0.00,,,0.00,313.0,meteobridge,2013-03-29 15:15:00,
2013-03-29 10:20:00,67.3,59.0,30.14,SSW,198,13.0,19.0,75,0.00,,,0.00,661.0,meteobridge,2013-03-29 15:20:00,
2013-03-29 10:25:00,66.9,58.8,30.14,SSW,211,19.0,19.0,75,0.00,,,0.00,295.0,meteobridge,2013-03-29 15:25:00,
2013-03-29 10:30:00,67.6,59.7,30.13,SSE,167,17.0,17.0,76,0.00,,,0.00,362.0,meteobridge,2013-03-29 15:30:00,
2013-03-29 10:35:00,68.0,59.7,30.13,SSW,200,11.0,19.0,75,0.00,,,0.00,343.0,meteobridge,2013-03-29 15:35:00,
2013-03-29 10:40:00,67.8,59.2,30.13,SSW,209,8.9,19.9,74,0.00,,,0.00,322.0,meteobridge,2013-03-29 15:40:00,
2013-03-29 10:45:00,68.0,59.7,30.13,SSE,163,16.1,19.9,75,0.00,,,0.00,568.0,meteobridge,2013-03-29 15:45:00,
2013-03-29 10:50:00,68.2,59.2,30.13,South,173,13.0,19.9,73,0.00,,,0.00,353.0,meteobridge,2013-03-29 15:50:00,
2013-03-29 10:55:00,68.4,59.4,30.13,South,189,16.1,21.0,73,0.00,,,0.00,482.0,meteobridge,2013-03-29 15:55:00,
2013-03-29 11:00:00,68.2,59.2,30.13,SW,223,15.0,19.0,73,0.00,,,0.00,482.0,meteobridge,2013-03-29 16:00:00,
2013-03-29 11:05:00,68.2,59.5,30.13,South,184,8.9,16.1,74,0.00,,,0.00,353.0,meteobridge,2013-03-29 16:05:00,
2013-03-29 11:10:00,68.5,59.9,30.12,South,190,12.1,16.1,74,0.00,,,0.00,360.0,meteobridge,2013-03-29 16:10:00,
2013-03-29 11:15:00,69.1,60.1,30.12,South,185,17.0,17.9,73,0.00,,,0.00,346.0,meteobridge,2013-03-29 16:15:00,
2013-03-29 11:20:00,68.5,59.5,30.12,SSW,193,17.0,19.9,73,0.00,,,0.00,301.0,meteobridge,2013-03-29 16:20:00,
2013-03-29 11:25:00,68.5,59.2,30.12,South,188,13.0,16.1,72,0.00,,,0.00,308.0,meteobridge,2013-03-29 16:25:00,
2013-03-29 11:30:00,68.7,59.4,30.12,SSW,209,10.1,17.0,72,0.00,,,0.00,271.0,meteobridge,2013-03-29 16:30:00,
2013-03-29 11:35:00,68.5,59.2,30.12,South,181,13.0,21.0,72,0.00,,,0.00,343.0,meteobridge,2013-03-29 16:35:00,
2013-03-29 11:41:00,69.3,60.3,30.12,SSW,194,15.0,19.9,73,0.00,,,0.00,411.0,meteobridge,2013-03-29 16:41:00,
2013-03-29 11:46:00,70.0,60.1,30.12,South,190,12.1,16.1,71,0.00,,,0.00,388.0,meteobridge,2013-03-29 16:46:00,
2013-03-29 11:51:00,70.2,59.9,30.12,SSW,193,13.0,23.9,70,0.00,,,0.00,401.0,meteobridge,2013-03-29 16:51:00,
2013-03-29 11:56:00,70.0,59.7,30.12,South,188,12.1,14.1,70,0.00,,,0.00,376.0,meteobridge,2013-03-29 16:56:00,
2013-03-29 12:01:00,70.3,60.1,30.12,SSW,204,17.0,19.0,70,0.00,,,0.00,309.0,meteobridge,2013-03-29 17:01:00,
2013-03-29 12:06:00,69.6,59.4,30.12,SW,218,13.0,17.9,70,0.00,,,0.00,457.0,meteobridge,2013-03-29 17:06:00,
2013-03-29 12:11:00,70.0,59.4,30.11,SSW,210,8.9,17.0,69,0.00,,,0.00,343.0,meteobridge,2013-03-29 17:11:00,
2013-03-29 12:16:00,70.7,60.4,30.11,SSW,196,12.1,21.9,70,0.00,,,0.00,937.0,meteobridge,2013-03-29 17:16:00,
2013-03-29 12:21:00,71.1,59.9,30.11,SSW,198,14.1,21.9,68,0.00,,,0.00,956.0,meteobridge,2013-03-29 17:21:00,
2013-03-29 12:26:00,70.9,59.7,30.11,South,175,14.1,19.0,68,0.00,,,0.00,480.0,meteobridge,2013-03-29 17:26:00,
2013-03-29 12:31:00,71.2,60.1,30.11,SSW,196,14.1,17.0,68,0.00,,,0.00,336.0,meteobridge,2013-03-29 17:31:00,
2013-03-29 12:37:00,71.2,60.1,30.11,SSW,196,11.0,19.0,68,0.00,,,0.00,380.0,meteobridge,2013-03-29 17:37:00,
2013-03-29 12:42:00,71.2,60.1,30.11,South,190,17.9,17.9,68,0.00,,,0.00,341.0,meteobridge,2013-03-29 17:42:00,
2013-03-29 12:47:00,71.1,59.9,30.11,SSW,198,11.0,15.0,68,0.00,,,0.00,413.0,meteobridge,2013-03-29 17:47:00,
2013-03-29 12:52:00,71.1,59.5,30.11,South,189,13.0,17.9,67,0.00,,,0.00,360.0,meteobridge,2013-03-29 17:52:00,
2013-03-29 12:57:00,70.9,59.7,30.11,SSW,202,11.0,15.0,68,0.00,,,0.00,381.0,meteobridge,2013-03-29 17:57:00,
2013-03-29 13:02:00,71.2,59.7,30.10,SSW,199,14.1,17.0,67,0.00,,,0.00,396.0,meteobridge,2013-03-29 18:02:00,
2013-03-29 13:07:00,72.3,61.5,30.10,South,185,17.0,21.0,69,0.00,,,0.00,397.0,meteobridge,2013-03-29 18:07:00,
2013-03-29 13:12:00,73.2,60.8,30.10,SSW,195,11.0,17.9,65,0.00,,,0.00,476.0,meteobridge,2013-03-29 18:12:00,
2013-03-29 13:17:00,72.3,60.3,30.10,SSW,203,14.1,23.0,66,0.00,,,0.00,485.0,meteobridge,2013-03-29 18:17:00,
2013-03-29 13:22:00,72.9,60.8,30.09,SSW,210,16.1,17.0,66,0.00,,,0.00,1028.0,meteobridge,2013-03-29 18:22:00,
2013-03-29 13:27:00,74.1,61.2,30.09,South,188,17.9,19.0,64,0.00,,,0.00,976.0,meteobridge,2013-03-29 18:27:00,
2013-03-29 13:32:00,73.8,60.4,30.08,SSW,202,11.0,19.9,63,0.00,,,0.00,976.0,meteobridge,2013-03-29 18:32:00,
2013-03-29 13:37:00,74.1,60.3,30.08,South,172,10.1,19.0,62,0.00,,,0.00,1013.0,meteobridge,2013-03-29 18:37:00,
2013-03-29 13:42:00,73.9,60.6,30.08,SSW,206,13.0,17.9,63,0.00,,,0.00,424.0,meteobridge,2013-03-29 18:42:00,
2013-03-29 13:47:00,74.5,60.1,30.07,SSW,196,12.1,16.1,61,0.00,,,0.00,387.0,meteobridge,2013-03-29 18:47:00,
2013-03-29 13:52:00,74.8,61.0,30.07,SW,218,8.1,17.9,62,0.00,,,0.00,362.0,meteobridge,2013-03-29 18:52:00,
2013-03-29 13:57:00,74.8,60.4,30.07,SSW,204,10.1,17.0,61,0.00,,,0.00,1079.0,meteobridge,2013-03-29 18:57:00,
2013-03-29 14:03:00,75.9,61.5,30.07,SSW,207,8.9,17.0,61,0.00,,,0.00,380.0,meteobridge,2013-03-29 19:03:00,
2013-03-29 14:07:00,75.9,60.6,30.07,South,180,15.0,17.9,59,0.00,,,0.00,1060.0,meteobridge,2013-03-29 19:07:00,
2013-03-29 14:12:00,75.6,59.7,30.06,SSW,199,15.0,19.0,58,0.00,,,0.00,1109.0,meteobridge,2013-03-29 19:12:00,
2013-03-29 14:17:00,75.6,60.6,30.06,SW,218,13.0,16.1,60,0.00,,,0.00,707.0,meteobridge,2013-03-29 19:17:00,
2013-03-29 14:22:00,76.6,60.8,30.06,South,190,14.1,17.0,58,0.00,,,0.00,1178.0,meteobridge,2013-03-29 19:22:00,
2013-03-29 14:27:00,76.5,61.0,30.06,SW,217,13.0,21.0,59,0.00,,,0.00,404.0,meteobridge,2013-03-29 19:27:00,
2013-03-29 14:33:00,75.7,60.4,30.06,South,188,14.1,23.9,59,0.00,,,0.00,408.0,meteobridge,2013-03-29 19:33:00,
2013-03-29 14:37:00,75.2,60.4,30.06,SSW,205,6.9,15.0,60,0.00,,,0.00,415.0,meteobridge,2013-03-29 19:37:00,
2013-03-29 14:43:00,74.7,59.9,30.06,SSW,200,11.0,16.1,60,0.00,,,0.00,297.0,meteobridge,2013-03-29 19:43:00,
2013-03-29 14:48:00,74.7,60.3,30.06,SSW,205,12.1,14.1,61,0.00,,,0.00,271.0,meteobridge,2013-03-29 19:48:00,
2013-03-29 14:53:00,74.1,59.7,30.06,SSW,194,10.1,15.0,61,0.00,,,0.00,334.0,meteobridge,2013-03-29 19:53:00,
2013-03-29 14:58:00,74.5,60.1,30.06,SSE,161,12.1,17.0,61,0.00,,,0.00,454.0,meteobridge,2013-03-29 19:58:00,
2013-03-29 15:03:00,75.9,61.0,30.06,SSW,204,11.0,17.0,60,0.00,,,0.00,1185.0,meteobridge,2013-03-29 20:03:00,
2013-03-29 15:08:00,75.9,60.1,30.05,SSW,205,8.9,16.1,58,0.00,,,0.00,362.0,meteobridge,2013-03-29 20:08:00,
2013-03-29 15:13:00,75.2,60.4,30.05,South,173,12.1,16.1,60,0.00,,,0.00,311.0,meteobridge,2013-03-29 20:13:00,
2013-03-29 15:18:00,74.7,59.9,30.05,South,169,13.0,15.0,60,0.00,,,0.00,211.0,meteobridge,2013-03-29 20:18:00,
2013-03-29 15:23:00,74.3,59.9,30.05,South,173,13.0,14.1,61,0.00,,,0.00,239.0,meteobridge,2013-03-29 20:23:00,
2013-03-29 15:28:00,74.5,60.1,30.05,SSW,198,14.1,16.1,61,0.00,,,0.00,195.0,meteobridge,2013-03-29 20:28:00,
2013-03-29 15:33:00,74.1,59.7,30.05,South,183,6.9,12.1,61,0.00,,,0.00,225.0,meteobridge,2013-03-29 20:33:00,
2013-03-29 15:38:00,74.5,60.1,30.06,SSE,164,13.0,16.1,61,0.00,,,0.00,258.0,meteobridge,2013-03-29 20:38:00,
2013-03-29 15:43:00,74.5,59.7,30.05,South,169,15.0,17.0,60,0.00,,,0.00,207.0,meteobridge,2013-03-29 20:43:00,
2013-03-29 15:48:00,74.5,60.1,30.05,South,182,10.1,14.1,61,0.00,,,0.00,241.0,meteobridge,2013-03-29 20:48:00,
2013-03-29 15:53:00,74.5,59.7,30.05,South,190,10.1,14.1,60,0.00,,,0.00,146.0,meteobridge,2013-03-29 20:53:00,
2013-03-29 15:58:00,74.1,59.7,30.05,South,172,10.1,13.0,61,0.00,,,0.00,142.0,meteobridge,2013-03-29 20:58:00,
2013-03-29 16:03:00,74.1,59.7,30.04,SSW,213,8.9,13.0,61,0.00,,,0.00,204.0,meteobridge,2013-03-29 21:03:00,
2013-03-29 16:08:00,74.1,59.7,30.04,South,176,10.1,14.1,61,0.00,,,0.00,134.0,meteobridge,2013-03-29 21:08:00,
2013-03-29 16:13:00,73.9,59.7,30.04,South,185,12.1,17.0,61,0.00,,,0.00,120.0,meteobridge,2013-03-29 21:13:00,
2013-03-29 16:19:00,73.8,59.9,30.04,South,178,6.9,14.1,62,0.00,,,0.00,132.0,meteobridge,2013-03-29 21:19:00,
2013-03-29 16:24:00,73.8,59.9,30.04,South,178,6.0,12.1,62,0.00,,,0.00,169.0,meteobridge,2013-03-29 21:24:00,
2013-03-29 16:29:00,73.9,60.1,30.04,SSE,157,8.9,11.0,62,0.00,,,0.00,163.0,meteobridge,2013-03-29 21:29:00,
2013-03-29 16:34:00,73.9,59.7,30.04,SSE,164,10.1,13.0,61,0.00,,,0.00,162.0,meteobridge,2013-03-29 21:34:00,
2013-03-29 16:39:00,73.9,60.1,30.04,SSE,167,11.0,13.0,62,0.00,,,0.00,160.0,meteobridge,2013-03-29 21:39:00,
2013-03-29 16:44:00,73.9,59.7,30.04,South,178,11.0,16.1,61,0.00,,,0.00,158.0,meteobridge,2013-03-29 21:44:00,
2013-03-29 16:49:00,73.8,59.9,30.04,SSE,165,6.9,11.0,62,0.00,,,0.00,127.0,meteobridge,2013-03-29 21:49:00,
2013-03-29 16:54:00,73.8,59.9,30.04,South,180,10.1,13.0,62,0.00,,,0.00,113.0,meteobridge,2013-03-29 21:54:00,
2013-03-29 16:59:00,73.6,59.4,30.04,South,172,10.1,16.1,61,0.00,,,0.00,83.0,meteobridge,2013-03-29 21:59:00,
2013-03-29 17:04:00,73.2,59.4,30.04,SSW,198,10.1,16.1,62,0.00,,,0.00,63.0,meteobridge,2013-03-29 22:04:00,
2013-03-29 17:09:00,73.0,59.2,30.04,South,174,10.1,19.0,62,0.00,,,0.00,88.0,meteobridge,2013-03-29 22:09:00,
2013-03-29 17:14:00,73.0,59.2,30.04,SSW,192,10.1,13.0,62,0.00,,,0.00,111.0,meteobridge,2013-03-29 22:14:00,
2013-03-29 17:19:00,73.2,59.4,30.04,South,183,11.0,13.0,62,0.00,,,0.00,93.0,meteobridge,2013-03-29 22:19:00,
2013-03-29 17:25:00,73.0,59.2,30.04,South,186,11.0,17.9,62,0.00,,,0.00,90.0,meteobridge,2013-03-29 22:25:00,
2013-03-29 17:30:00,73.0,59.2,30.04,South,178,11.0,14.1,62,0.00,,,0.00,105.0,meteobridge,2013-03-29 22:30:00,
2013-03-29 17:35:00,73.2,59.9,30.04,South,179,6.0,10.1,63,0.00,,,0.00,109.0,meteobridge,2013-03-29 22:35:00,
2013-03-29 17:40:00,73.2,59.4,30.04,South,170,13.0,13.0,62,0.00,,,0.00,95.0,meteobridge,2013-03-29 22:40:00,
2013-03-29 17:45:00,73.0,59.2,30.04,SSE,165,10.1,14.1,62,0.00,,,0.00,90.0,meteobridge,2013-03-29 22:45:00,
2013-03-29 17:50:00,73.0,59.2,30.04,South,178,10.1,13.0,62,0.00,,,0.00,81.0,meteobridge,2013-03-29 22:50:00,
2013-03-29 17:55:00,73.0,59.2,30.04,South,187,10.1,11.0,62,0.00,,,0.00,62.0,meteobridge,2013-03-29 22:55:00,
2013-03-29 18:00:00,72.9,59.0,30.04,South,171,12.1,13.0,62,0.00,,,0.00,46.0,meteobridge,2013-03-29 23:00:00,
2013-03-29 18:05:00,72.7,59.4,30.04,South,173,10.1,13.0,63,0.00,,,0.00,39.0,meteobridge,2013-03-29 23:05:00,
2013-03-29 18:10:00,72.5,59.2,30.04,SSE,167,4.9,6.9,63,0.00,,,0.00,42.0,meteobridge,2013-03-29 23:10:00,
2013-03-29 18:15:00,72.3,59.0,30.04,SSE,163,12.1,14.1,63,0.00,,,0.00,65.0,meteobridge,2013-03-29 23:15:00,
2013-03-29 18:20:00,72.3,59.0,30.04,SSE,164,4.9,10.1,63,0.00,,,0.00,70.0,meteobridge,2013-03-29 23:20:00,
2013-03-29 18:25:00,72.3,59.0,30.03,SSE,163,8.9,14.1,63,0.00,,,0.00,62.0,meteobridge,2013-03-29 23:25:00,
2013-03-29 18:30:00,72.3,59.5,30.04,SSE,168,8.9,13.0,64,0.00,,,0.00,65.0,meteobridge,2013-03-29 23:30:00,
2013-03-29 18:35:00,72.3,59.5,30.04,South,173,6.0,11.0,64,0.00,,,0.00,62.0,meteobridge,2013-03-29 23:35:00,
2013-03-29 18:40:00,72.1,59.4,30.03,SSE,163,10.1,10.1,64,0.00,,,0.00,81.0,meteobridge,2013-03-29 23:40:00,
2013-03-29 18:45:00,72.3,59.5,30.03,SSE,155,13.0,13.0,64,0.00,,,0.00,90.0,meteobridge,2013-03-29 23:45:00,
2013-03-29 18:50:00,72.1,59.4,30.03,South,169,11.0,11.0,64,0.00,,,0.00,76.0,meteobridge,2013-03-29 23:50:00,
2013-03-29 18:55:00,72.0,59.5,30.03,South,173,6.9,13.0,65,0.00,,,0.00,63.0,meteobridge,2013-03-29 23:55:00,
2013-03-29 19:00:00,71.8,59.4,30.03,SSE,161,10.1,15.0,65,0.00,,,0.00,60.0,meteobridge,2013-03-30 00:00:00,
2013-03-29 19:06:00,71.8,59.4,30.03,South,170,4.9,11.0,65,0.00,,,0.00,60.0,meteobridge,2013-03-30 00:06:00,
2013-03-29 19:11:00,71.8,59.4,30.03,South,169,10.1,13.0,65,0.00,,,0.00,44.0,meteobridge,2013-03-30 00:11:00,
2013-03-29 19:16:00,71.4,59.0,30.03,South,170,6.0,11.0,65,0.00,,,0.00,28.0,meteobridge,2013-03-30 00:16:00,
2013-03-29 19:21:00,71.2,59.4,30.02,SSE,163,6.0,10.1,66,0.00,,,0.00,18.0,meteobridge,2013-03-30 00:21:00,
2013-03-29 19:26:00,71.1,59.2,30.02,SSE,152,4.9,12.1,66,0.00,,,0.00,12.0,meteobridge,2013-03-30 00:26:00,
2013-03-29 19:31:00,70.9,59.4,30.02,SSE,159,8.1,13.0,67,0.00,,,0.00,9.0,meteobridge,2013-03-30 00:31:00,
2013-03-29 19:36:00,70.7,59.2,30.02,SSE,157,8.9,13.0,67,0.00,,,0.00,5.0,meteobridge,2013-03-30 00:36:00,
2013-03-29 19:41:00,70.7,59.2,30.02,SSE,163,8.1,14.1,67,0.00,,,0.00,0.0,meteobridge,2013-03-30 00:41:00,
2013-03-29 19:46:00,70.5,59.0,30.02,SSE,149,6.9,13.0,67,0.00,,,0.00,0.0,meteobridge,2013-03-30 00:46:00,
2013-03-29 19:51:00,70.3,58.8,30.03,SSE,156,8.1,10.1,67,0.00,,,0.00,0.0,meteobridge,2013-03-30 00:51:00,
2013-03-29 19:56:00,70.3,59.4,30.03,SSE,166,8.9,11.0,68,0.00,,,0.00,0.0,meteobridge,2013-03-30 00:56:00,
2013-03-29 20:01:00,70.0,59.0,30.03,SSE,160,4.0,6.9,68,0.00,,,0.00,0.0,meteobridge,2013-03-30 01:01:00,
2013-03-29 20:06:00,69.8,58.8,30.03,SSE,165,2.9,4.9,68,0.00,,,0.00,0.0,meteobridge,2013-03-30 01:06:00,
2013-03-29 20:11:00,69.3,58.6,30.03,SSE,165,2.9,6.0,69,0.00,,,0.00,0.0,meteobridge,2013-03-30 01:11:00,
2013-03-29 20:17:00,69.1,58.8,30.03,SSE,167,2.9,4.9,70,0.00,,,0.00,0.0,meteobridge,2013-03-30 01:17:00,
2013-03-29 20:22:00,68.7,58.5,30.04,SSE,167,2.0,4.0,70,0.00,,,0.00,0.0,meteobridge,2013-03-30 01:22:00,
2013-03-29 20:27:00,68.5,58.8,30.04,SSE,168,2.9,4.0,71,0.00,,,0.00,0.0,meteobridge,2013-03-30 01:27:00,
2013-03-29 20:32:00,68.5,58.8,30.04,South,170,2.0,6.0,71,0.00,,,0.00,0.0,meteobridge,2013-03-30 01:32:00,
2013-03-29 20:37:00,68.5,58.8,30.04,South,171,2.0,4.9,71,0.00,,,0.00,0.0,meteobridge,2013-03-30 01:37:00,
2013-03-29 20:42:00,68.7,59.0,30.04,South,172,2.0,2.9,71,0.00,,,0.00,0.0,meteobridge,2013-03-30 01:42:00,
2013-03-29 20:47:00,68.9,59.2,30.05,South,172,4.0,4.9,71,0.00,,,0.00,0.0,meteobridge,2013-03-30 01:47:00,
2013-03-29 20:52:00,68.9,59.2,30.04,South,172,4.0,4.9,71,0.00,,,0.00,0.0,meteobridge,2013-03-30 01:52:00,
2013-03-29 20:58:00,68.9,59.2,30.05,SSE,163,4.9,8.9,71,0.00,,,0.00,0.0,meteobridge,2013-03-30 01:58:00,
2013-03-29 21:03:00,69.1,59.4,30.04,SSE,167,6.0,6.0,71,0.00,,,0.00,0.0,meteobridge,2013-03-30 02:03:00,
2013-03-29 21:08:00,69.1,59.4,30.04,SSE,159,6.9,8.9,71,0.00,,,0.00,0.0,meteobridge,2013-03-30 02:08:00,
2013-03-29 21:13:00,69.3,59.5,30.04,SSE,156,4.9,11.0,71,0.00,,,0.00,0.0,meteobridge,2013-03-30 02:13:00,
2013-03-29 21:18:00,69.3,59.0,30.04,SSE,150,8.9,10.1,70,0.00,,,0.00,0.0,meteobridge,2013-03-30 02:18:00,
2013-03-29 21:23:00,69.3,59.0,30.05,SSE,151,6.0,10.1,70,0.00,,,0.00,0.0,meteobridge,2013-03-30 02:23:00,
2013-03-29 21:28:00,69.3,59.0,30.05,SE,143,10.1,10.1,70,0.00,,,0.00,0.0,meteobridge,2013-03-30 02:28:00,
2013-03-29 21:33:00,69.3,59.0,30.05,SSE,154,6.0,8.1,70,0.00,,,0.00,0.0,meteobridge,2013-03-30 02:33:00,
2013-03-29 21:38:00,69.1,59.4,30.05,SSE,163,4.9,6.9,71,0.00,,,0.00,0.0,meteobridge,2013-03-30 02:38:00,
2013-03-29 21:44:00,68.9,59.2,30.05,SSE,163,2.9,6.0,71,0.00,,,0.00,0.0,meteobridge,2013-03-30 02:44:00,
2013-03-29 21:49:00,68.7,59.0,30.05,SSE,163,4.0,4.9,71,0.00,,,0.00,0.0,meteobridge,2013-03-30 02:49:00,
2013-03-29 21:54:00,68.5,59.2,30.05,SSE,150,6.0,6.0,72,0.00,,,0.00,0.0,meteobridge,2013-03-30 02:54:00,
2013-03-29 21:59:00,68.4,59.0,30.05,SSE,155,6.0,6.0,72,0.00,,,0.00,0.0,meteobridge,2013-03-30 02:59:00,
2013-03-29 22:04:00,68.2,58.8,30.05,SSE,156,6.0,6.9,72,0.00,,,0.00,0.0,meteobridge,2013-03-30 03:04:00,
2013-03-29 22:09:00,68.2,59.2,30.05,SSE,153,6.9,8.1,73,0.00,,,0.00,0.0,meteobridge,2013-03-30 03:09:00,
2013-03-29 22:14:00,68.2,59.2,30.05,SSE,153,4.9,6.9,73,0.00,,,0.00,0.0,meteobridge,2013-03-30 03:14:00,
2013-03-29 22:19:00,68.2,59.2,30.05,SSE,148,6.9,10.1,73,0.00,,,0.00,0.0,meteobridge,2013-03-30 03:19:00,
2013-03-29 22:24:00,68.2,59.2,30.05,SE,142,6.0,11.0,73,0.00,,,0.00,0.0,meteobridge,2013-03-30 03:24:00,
2013-03-29 22:29:00,68.2,59.2,30.04,SE,145,6.9,11.0,73,0.00,,,0.00,0.0,meteobridge,2013-03-30 03:29:00,
2013-03-29 22:34:00,68.2,59.2,30.04,SE,142,12.1,12.1,73,0.00,,,0.00,0.0,meteobridge,2013-03-30 03:34:00,
2013-03-29 22:39:00,68.2,59.2,30.04,SSE,148,6.0,11.0,73,0.00,,,0.00,0.0,meteobridge,2013-03-30 03:39:00,
2013-03-29 22:44:00,68.2,59.2,30.04,SE,144,10.1,13.0,73,0.00,,,0.00,0.0,meteobridge,2013-03-30 03:44:00,
2013-03-29 22:50:00,68.2,59.2,30.04,SE,139,8.9,11.0,73,0.00,,,0.00,0.0,meteobridge,2013-03-30 03:50:00,
2013-03-29 22:55:00,68.0,59.4,30.03,SE,140,8.9,11.0,74,0.00,,,0.00,0.0,meteobridge,2013-03-30 03:55:00,
2013-03-29 23:00:00,67.8,59.2,30.03,SSE,150,8.1,12.1,74,0.00,,,0.00,0.0,meteobridge,2013-03-30 04:00:00,
2013-03-29 23:05:00,67.8,59.2,30.03,SE,140,10.1,12.1,74,0.00,,,0.00,0.0,meteobridge,2013-03-30 04:05:00,
2013-03-29 23:10:00,67.8,59.2,30.03,SSE,150,10.1,13.0,74,0.00,,,0.00,0.0,meteobridge,2013-03-30 04:10:00,
2013-03-29 23:16:00,68.0,59.4,30.03,SSE,165,6.9,10.1,74,0.00,,,0.00,0.0,meteobridge,2013-03-30 04:16:00,
2013-03-29 23:21:00,68.0,59.4,30.03,SSE,167,6.0,8.9,74,0.00,,,0.00,0.0,meteobridge,2013-03-30 04:21:00,
2013-03-29 23:26:00,67.8,59.2,30.03,South,169,4.9,12.1,74,0.00,,,0.00,0.0,meteobridge,2013-03-30 04:26:00,
2013-03-29 23:31:00,68.0,59.4,30.03,SSE,165,6.9,10.1,74,0.00,,,0.00,0.0,meteobridge,2013-03-30 04:31:00,
2013-03-29 23:36:00,68.2,59.5,30.03,South,169,8.9,12.1,74,0.00,,,0.00,0.0,meteobridge,2013-03-30 04:36:00,
2013-03-29 23:41:00,68.0,59.4,30.03,SSE,152,6.0,10.1,74,0.00,,,0.00,0.0,meteobridge,2013-03-30 04:41:00,
2013-03-29 23:46:00,68.0,59.4,30.02,SSE,160,8.1,13.0,74,0.00,,,0.00,0.0,meteobridge,2013-03-30 04:46:00,
2013-03-29 23:51:00,68.2,59.5,30.01,SE,141,17.0,17.9,74,0.00,,,0.00,0.0,meteobridge,2013-03-30 04:51:00,
2013-03-29 23:56:00,68.4,59.4,30.01,SSE,154,6.9,14.1,73,0.00,,,0.00,0.0,meteobridge,2013-03-30 04:56:00,